Regional Weather Roundup
Issued by NWS

Home | Current Version | Previous Version | Text Only | Print | Product List | Glossary On
Versions: 1 2 3 4 5 6 7 8 9 10 11 12 13 14 15 16 17 18 19 20 21 22 23 24 25 26 27 28 29 30 31 32 33 34 35 36 37 38 39 40 41 42 43 44 45 46 47 48 49 50
000
ASUS42 KKEY 282110
RWRKEY

FLORIDA REGIONAL WEATHER ROUNDUP FOR THE FLORIDA KEYS
NATIONAL WEATHER SERVICE KEY WEST FLORIDA
500 PM EDT TUE JUL 28 2015

...SOUTH FLORIDA AND THE KEYS...

CITY           SKY/WX    TMP DP  RH WIND       PRES   REMARKS
FORT MYERS     MOSUNNY   89  76  65 SW13G23   29.96F HX 100
SW REGIONAL AP MOSUNNY   87  76  69 SW17      29.97F HX  97
NAPLES         MOSUNNY   89  78  70 SW10      29.98F HX 103
MIAMI          PTSUNNY   91  76  61 SE10      29.97F HX 103
WEST KENDALL   MOSUNNY   94  68  42 W9        29.97F HX  98
HOMESTEAD      MOSUNNY   91  77  62 S10       29.97F HX 104
MARATHON       SUNNY     91  77  63 VRB3      30.00S HX 104
BOCA CHICA NAS PTSUNNY   91  71  51 NW8       30.00F HX  97
KEY WEST INTL  MOSUNNY   92  72  51 N6        30.00F HX  99

...INTERNATIONAL WEATHER...

CITY           SKY/WX    TMP DP  RH WIND       PRES   REMARKS
NASSAU BAHAMAS NOT AVBL
CANCUN MEXICO  MOSUNNY   90  73  58 SE15      29.98F HX  98
COZUMEL MEXICO MOSUNNY   88  75  66 SE14      29.97S HX  97

ADJACENT COASTAL WATERS...

STATION/POSITION TIME  SKY/WX   TEMP    WIND        PRES    WAVE
                                AIR SEA DIR/SP/G            HT/PER
                 (UTC)          (F)     (DEG/KT/KT) (MB)    (FT/S)
PULASKI SHOAL LI 2000            86     310/  4/  5 1016.2F
SAND KEY         2050            87     250/  2/  3 1015.9F
SOMBRERO KEY     2000            89     160/  2/  2 1016.8F
LONG KEY         2000            88 89   CALM  /  1 1016.8F
MOLASSES REEF    2000            85 88  210/  8/  9 1015.9F
FOWEY ROCKS      NOT AVBL

$$



USA.gov is the U.S. government's official web portal to all federal, state and local government web resources and services.